TimeCST,TemperatureF,Dew PointF,Humidity,Sea Level PressureIn,VisibilityMPH,Wind Direction,Wind SpeedMPH,Gust SpeedMPH,PrecipitationIn,Events,Conditions,WindDirDegrees,DateUTC
12:15 AM,22.6,21.2,94,30.15,0.8,SE,5.8,-,N/A,,Overcast,140,2013-02-08 06:15:00
12:35 AM,22.1,20.5,93,30.15,0.8,SE,5.8,-,N/A,,Overcast,140,2013-02-08 06:35:00
12:55 AM,22.1,20.8,95,30.15,1.0,SE,5.8,-,N/A,,Overcast,140,2013-02-08 06:55:00
1:15 AM,22.5,21.0,94,30.14,1.8,SSE,6.9,-,N/A,,Overcast,150,2013-02-08 07:15:00
1:35 AM,22.1,20.3,93,30.14,5.0,SSE,5.8,-,N/A,,Overcast,150,2013-02-08 07:35:00
1:55 AM,22.1,20.3,93,30.14,7.0,SSE,5.8,-,N/A,,Scattered Clouds,150,2013-02-08 07:55:00
2:15 AM,21.7,20.1,93,30.14,7.0,SE,4.6,-,N/A,,Clear,140,2013-02-08 08:15:00
2:35 AM,21.4,19.6,93,30.13,10.0,SE,4.6,-,N/A,,Clear,130,2013-02-08 08:35:00
2:55 AM,21.9,20.3,93,30.13,10.0,SSE,4.6,-,N/A,,Clear,160,2013-02-08 08:55:00
3:15 AM,23.0,21.2,93,30.12,10.0,SE,5.8,-,N/A,,Clear,140,2013-02-08 09:15:00
3:35 AM,21.6,19.9,93,30.11,10.0,SSE,4.6,-,N/A,,Clear,150,2013-02-08 09:35:00
3:55 AM,22.3,20.8,94,30.10,10.0,SSE,5.8,-,N/A,,Clear,160,2013-02-08 09:55:00
4:15 AM,22.6,21.0,93,30.10,10.0,SSE,6.9,-,N/A,,Clear,160,2013-02-08 10:15:00
4:35 AM,22.5,20.8,93,30.09,10.0,SSE,6.9,-,N/A,,Clear,160,2013-02-08 10:35:00
4:55 AM,22.3,20.8,94,30.09,10.0,SSE,8.1,-,N/A,,Clear,160,2013-02-08 10:55:00
5:15 AM,22.5,20.8,93,30.09,10.0,SSE,5.8,-,N/A,,Clear,160,2013-02-08 11:15:00
5:35 AM,22.6,21.2,94,30.09,10.0,SSE,6.9,-,N/A,,Clear,160,2013-02-08 11:35:00
5:55 AM,23.0,21.6,94,30.08,7.0,SSE,8.1,-,N/A,,Clear,160,2013-02-08 11:55:00
6:15 AM,23.5,22.1,94,30.08,7.0,SSE,9.2,-,N/A,,Clear,160,2013-02-08 12:15:00
6:35 AM,24.1,22.8,95,30.08,7.0,SSE,8.1,-,N/A,,Clear,160,2013-02-08 12:35:00
6:55 AM,23.9,22.6,95,30.07,7.0,SSE,8.1,-,N/A,,Clear,160,2013-02-08 12:55:00
7:15 AM,24.8,23.7,96,30.07,7.0,SSE,9.2,-,N/A,,Clear,160,2013-02-08 13:15:00
7:35 AM,25.3,23.9,94,30.06,7.0,SSE,9.2,-,N/A,,Clear,160,2013-02-08 13:35:00
7:55 AM,25.5,24.3,95,30.06,7.0,SSE,10.4,-,N/A,,Clear,160,2013-02-08 13:55:00
8:15 AM,25.7,24.6,96,30.05,10.0,SSE,12.7,-,N/A,,Clear,160,2013-02-08 14:15:00
8:35 AM,25.7,24.6,96,30.06,10.0,SSE,11.5,-,N/A,,Clear,160,2013-02-08 14:35:00
8:55 AM,27.0,25.9,96,30.07,10.0,SSE,12.7,-,N/A,,Clear,160,2013-02-08 14:55:00
9:15 AM,27.5,26.2,95,30.07,10.0,South,16.1,21.9,N/A,,Clear,170,2013-02-08 15:15:00
9:35 AM,29.1,27.7,94,30.07,10.0,SSE,15.0,-,N/A,,Clear,160,2013-02-08 15:35:00
9:55 AM,30.9,28.8,92,30.06,10.0,SSE,15.0,21.9,N/A,,Clear,160,2013-02-08 15:55:00
10:15 AM,31.8,28.6,88,30.06,10.0,South,17.3,21.9,N/A,,Clear,170,2013-02-08 16:15:00
10:35 AM,33.8,30.0,86,30.05,10.0,South,18.4,23.0,N/A,,Clear,170,2013-02-08 16:35:00
10:55 AM,35.4,29.5,79,30.04,10.0,South,21.9,-,N/A,,Clear,170,2013-02-08 16:55:00
11:15 AM,37.2,29.3,73,30.03,10.0,South,20.7,26.5,N/A,,Clear,170,2013-02-08 17:15:00
11:35 AM,39.0,28.9,67,30.02,10.0,South,23.0,28.8,N/A,,Clear,170,2013-02-08 17:35:00
11:55 AM,41.5,28.8,60,30.01,10.0,SSE,21.9,28.8,N/A,,Clear,160,2013-02-08 17:55:00
12:15 PM,43.5,28.6,56,29.99,10.0,South,24.2,27.6,N/A,,Clear,170,2013-02-08 18:15:00
12:35 PM,45.7,28.2,51,29.97,10.0,South,20.7,26.5,N/A,,Clear,170,2013-02-08 18:35:00
12:55 PM,47.5,27.9,47,29.96,10.0,South,21.9,29.9,N/A,,Clear,170,2013-02-08 18:55:00
1:15 PM,49.3,27.3,43,29.94,10.0,South,23.0,28.8,N/A,,Clear,180,2013-02-08 19:15:00
1:35 PM,51.3,25.0,36,29.93,10.0,South,27.6,33.4,N/A,,Clear,180,2013-02-08 19:35:00
1:55 PM,51.1,25.9,38,29.91,10.0,South,26.5,32.2,N/A,,Clear,180,2013-02-08 19:55:00
2:15 PM,50.9,25.9,38,29.90,10.0,South,26.5,32.2,N/A,,Clear,170,2013-02-08 20:15:00
2:35 PM,50.2,26.4,40,29.89,10.0,South,25.3,32.2,N/A,,Clear,170,2013-02-08 20:35:00
2:55 PM,51.4,25.5,37,29.88,10.0,South,24.2,29.9,N/A,,Clear,180,2013-02-08 20:55:00
3:15 PM,51.6,24.4,35,29.87,10.0,South,28.8,34.5,N/A,,Clear,180,2013-02-08 21:15:00
3:35 PM,51.1,24.6,36,29.87,10.0,South,26.5,33.4,N/A,,Clear,180,2013-02-08 21:35:00
3:55 PM,50.4,24.8,37,29.87,10.0,South,27.6,35.7,N/A,,Clear,180,2013-02-08 21:55:00
4:15 PM,50.0,25.5,39,29.87,10.0,South,24.2,31.1,N/A,,Clear,170,2013-02-08 22:15:00
4:35 PM,48.7,25.9,41,29.87,10.0,South,18.4,25.3,N/A,,Clear,170,2013-02-08 22:35:00
4:55 PM,47.8,25.7,42,29.85,10.0,South,21.9,27.6,N/A,,Clear,170,2013-02-08 22:55:00
5:15 PM,46.8,25.7,44,29.85,10.0,South,26.5,29.9,N/A,,Clear,170,2013-02-08 23:15:00
5:35 PM,46.0,25.7,45,29.84,10.0,South,25.3,31.1,N/A,,Clear,170,2013-02-08 23:35:00
5:55 PM,45.7,25.9,46,29.83,10.0,SSE,25.3,34.5,N/A,,Clear,160,2013-02-08 23:55:00
6:15 PM,43.9,25.9,49,29.85,10.0,South,23.0,28.8,N/A,,Clear,170,2013-02-09 00:15:00
6:35 PM,42.8,25.7,51,29.85,10.0,SSE,19.6,27.6,N/A,,Clear,160,2013-02-09 00:35:00
6:55 PM,41.0,25.7,55,29.85,10.0,SSE,17.3,24.2,N/A,,Clear,160,2013-02-09 00:55:00
7:15 PM,39.7,26.1,58,29.85,10.0,SSE,17.3,23.0,N/A,,Clear,160,2013-02-09 01:15:00
7:35 PM,39.2,26.2,60,29.85,10.0,SSE,18.4,21.9,N/A,,Clear,160,2013-02-09 01:35:00
7:55 PM,38.7,26.6,62,29.85,10.0,South,21.9,29.9,N/A,,Clear,170,2013-02-09 01:55:00
8:15 PM,37.9,27.1,65,29.85,10.0,South,20.7,26.5,N/A,,Clear,170,2013-02-09 02:15:00
8:35 PM,36.9,27.1,68,29.86,10.0,South,19.6,26.5,N/A,,Clear,170,2013-02-09 02:35:00
8:55 PM,36.0,27.1,70,29.85,10.0,South,19.6,26.5,N/A,,Clear,170,2013-02-09 02:55:00
9:15 PM,35.2,27.1,72,29.85,10.0,South,20.7,25.3,N/A,,Clear,170,2013-02-09 03:15:00
9:35 PM,34.7,27.3,74,29.85,10.0,South,18.4,24.2,N/A,,Clear,170,2013-02-09 03:35:00
9:55 PM,34.5,27.1,74,29.85,10.0,South,16.1,-,N/A,,Clear,170,2013-02-09 03:55:00
10:15 PM,34.0,27.1,76,29.85,10.0,South,17.3,20.7,N/A,,Clear,170,2013-02-09 04:15:00
10:35 PM,34.7,27.3,74,29.85,10.0,South,15.0,-,N/A,,Clear,170,2013-02-09 04:35:00
10:55 PM,34.7,27.3,74,29.84,10.0,South,19.6,23.0,N/A,,Clear,170,2013-02-09 04:55:00
11:15 PM,36.1,27.3,70,29.82,10.0,South,27.6,34.5,N/A,,Clear,180,2013-02-09 05:15:00
11:35 PM,36.5,26.8,68,29.81,10.0,South,26.5,33.4,N/A,,Clear,180,2013-02-09 05:35:00
11:55 PM,35.8,26.6,69,29.81,10.0,South,23.0,29.9,N/A,,Clear,180,2013-02-09 05:55:00